DIRECTV 12

Last updated on Fri Dec 19 2025 00:02:49 GMT+0000 (Coordinated Universal Time)

1 36131U 09075A 25352.54229839 -.00000079 00000+0 00000+0 0 9999 2 36131 0.0320 123.7074 0000454 227.1544 189.0579 1.00273237 44746
UTC large
Height (km)
Speed (km/s)
/
Latitude / Longitude
Inclination (degrees)
Orbital Period (minutes)
Azimuth
Elevation
Range (km)
Doppler Factor

Next 0 passes for location: London (51.5072 / 0.1276)

Sorry there are no passes over London.